Weather History for Terrell, TX

Change the Weather History Date:

Tuesday, September 17, 2013

  Actual Average (KDFW) Record (KDFW)
Temperature  
Mean Temperature 85 °F 77 °F  
Max Temperature 95 °F 88 °F 99 °F (1997)
Min Temperature 77 °F 67 °F 44 °F (1903)
Degree Days  
Heating Degree Days 0 0  
Month to date heating degree days 0  
Since 1 July heating degree days 0  
Cooling Degree Days 20 13  
Month to date cooling degree days 261  
Year to date cooling degree days 2443  
Growing Degree Days 35 (Base 50)    
Moisture  
Dew Point 63 °F    
Average Humidity 46    
Maximum Humidity 66    
Minimum Humidity 31    
Precipitation  
Precipitation 0.00 in 0.07 in 1.76 in (1908)
Month to date precipitation 1.55  
Year to date precipitation 25.66  
Sea Level Pressure  
Sea Level Pressure 30.01 in    
Wind  
Wind Speed 4 mph (SE)    
Max Wind Speed 9 mph    
Max Gust Speed -    
Visibility 10 miles    
Events      
T = Trace of Precipitation, MM = Missing Value Source: NWS Daily Summary

Daily Weather History Graph

Daily Weather History Graph

Search for Another Location

Airport:

Trip Planner

Search our weather history database for the weather conditions in past years. The results will help you decide how hot, cold, wet, or windy it might be!

Date:

Astronomy

Sep. 17, 2013 Rise Set
Actual Time 7:10 AM CDT 7:28 PM CDT
Civil Twilight 6:45 AM CDT 7:52 PM CDT
Nautical Twilight 6:16 AM CDT 8:21 PM CDT
Astronomical Twilight 5:47 AM CDT 8:50 PM CDT
Moon 6:13 PM CDT (9/17) 5:10 AM CDT (9/17)
Length of Visible Light 13h 07m
Length of Day
12h 17m
Waxing Gibbous, 96% of the Moon is Illuminated
Sep 17
Waxing Gibbous
Sep 19
Full
Sep 26
Last Quarter
Oct 4
New
Oct 11
First Quarter

Hourly Weather History & Observations

Time (CDT) Temp. Heat Index Dew Point Humidity Pressure Visibility Wind Dir Wind Speed Gust Speed Precip Events Conditions
12:53 AM 84.9 °F 85.4 °F 62.1 °F 46% 30.02 in 10.0 mi East 4.6 mph - N/A   Clear
1:53 AM 84.0 °F 84.9 °F 63.0 °F 49% 30.02 in 10.0 mi SE 3.5 mph - N/A   Mostly Cloudy
2:53 AM 82.0 °F 83.1 °F 63.0 °F 52% 30.02 in 10.0 mi SE 5.8 mph - N/A   Clear
3:53 AM 81.0 °F 82.2 °F 63.0 °F 54% 30.02 in 10.0 mi Calm Calm - N/A   Clear
4:53 AM 79.0 °F - 64.0 °F 60% 30.02 in 10.0 mi Calm Calm - N/A   Clear
5:53 AM 80.1 °F 81.7 °F 64.0 °F 58% 30.02 in 10.0 mi Calm Calm - N/A   Clear
6:53 AM 78.1 °F - 64.0 °F 62% 30.03 in 10.0 mi Calm Calm - N/A   Clear
7:53 AM 77.0 °F - 64.9 °F 66% 30.05 in 10.0 mi Calm Calm - N/A   Clear
8:53 AM 82.9 °F 84.4 °F 64.0 °F 53% 30.06 in 10.0 mi Calm Calm - N/A   Clear
9:53 AM 87.1 °F 89.2 °F 66.0 °F 49% 30.07 in 10.0 mi Calm Calm - N/A   Clear
10:53 AM 88.0 °F 89.3 °F 64.0 °F 45% 30.08 in 10.0 mi South 5.8 mph - N/A   Clear
11:53 AM 89.1 °F 91.0 °F 64.9 °F 45% 30.06 in 10.0 mi SSW 9.2 mph - N/A   Clear
12:53 PM 91.0 °F 92.6 °F 64.0 °F 41% 30.04 in 10.0 mi Calm Calm - N/A   Clear
1:53 PM 93.9 °F 93.2 °F 59.0 °F 31% 30.01 in 10.0 mi South 9.2 mph - N/A   Clear
2:53 PM 93.9 °F 94.0 °F 61.0 °F 33% 29.99 in 10.0 mi South 9.2 mph - N/A   Clear
3:53 PM 93.9 °F 93.2 °F 59.0 °F 31% 29.96 in 10.0 mi SE 8.1 mph - N/A   Clear
4:53 PM 93.9 °F 93.6 °F 60.1 °F 32% 29.94 in 10.0 mi Calm Calm - N/A   Clear
5:53 PM 93.0 °F 92.3 °F 59.0 °F 32% 29.94 in 10.0 mi SE 4.6 mph - N/A   Clear
6:53 PM 91.9 °F 91.5 °F 60.1 °F 34% 29.94 in 10.0 mi SE 3.5 mph - N/A   Clear
7:53 PM 90.0 °F 89.7 °F 60.1 °F 37% 29.94 in 10.0 mi East 5.8 mph - N/A   Clear
8:53 PM 87.1 °F 87.5 °F 62.1 °F 43% 29.96 in 10.0 mi East 9.2 mph - N/A   Partly Cloudy
9:53 PM 84.9 °F 85.9 °F 63.0 °F 48% 29.97 in 10.0 mi East 6.9 mph - N/A   Clear
10:53 PM 84.0 °F 85.4 °F 64.0 °F 51% 29.98 in 10.0 mi ESE 3.5 mph - N/A   Clear
11:53 PM 82.9 °F 84.4 °F 64.0 °F 53% 29.98 in 10.0 mi SE 3.5 mph - N/A   Clear